Baraboo, WI

6:52 AM CST on December 04, 2016 (GMT -0600)
Baraboo Wisconsin Dells

Weather History for KDLL - March, 2013

Change the Weather History Date:

Saturday, March 9, 2013

  Actual Average Record
Temperature  
Mean Temperature 34 °F -  
Max Temperature 37 °F 40 °F 62 °F (1977)
Min Temperature 32 °F 17 °F -15 °F (1975)
Degree Days  
Heating Degree Days 30    
Moisture  
Dew Point 30 °F    
Average Humidity 84    
Maximum Humidity 100    
Minimum Humidity 69    
Precipitation  
Precipitation 0.09 in - - ()
Sea Level Pressure  
Sea Level Pressure 29.96 in    
Wind  
Wind Speed 11 mph (SSE)    
Max Wind Speed 22 mph    
Max Gust Speed 25 mph    
Visibility 7 miles    
Events Rain    
Averages and records for this station are not official NWS values.
T = Trace of Precipitation, MM = Missing Value Source: NWS Daily Summary

Daily Weather History Graph

Daily Weather History Graph

Search for Another Location

Airport or City:

Trip Planner

Search our weather history database for the weather conditions in past years. The results will help you decide how hot, cold, wet, or windy it might be!

Date:

Astronomy

Mar. 09, 2013 Rise Set
Actual Time 6:21 AM CST 5:58 PM CST
Civil Twilight 5:52 AM CST 6:26 PM CST
Nautical Twilight 5:19 AM CST 7:00 PM CST
Astronomical Twilight 4:46 AM CST 7:33 PM CST
Moon 4:48 AM CST (3/9) 3:58 PM CST (3/9)
Length of Visible Light 12h 34m
Length of Day
11h 36m
Waning Crescent, 5% of the Moon is Illuminated
Mar 9
Waning Crescent
Mar 11
New
Mar 19
First Quarter
Mar 27
Full
Apr 2
Last Quarter

Hourly Weather History & Observations

Time (CST) Temp. Windchill Dew Point Humidity Pressure Visibility Wind Dir Wind Speed Gust Speed Precip Events Conditions
12:15 AM 32.0 °F 24.8 °F 23.0 °F 69% 30.22 in 10.0 mi SSE 8.1 mph - N/A   Clear
12:35 AM 32.0 °F 24.2 °F 23.0 °F 69% 30.21 in 10.0 mi SSE 9.2 mph - N/A   Clear
12:55 AM 32.0 °F 24.2 °F 23.0 °F 69% 30.21 in 10.0 mi SSE 9.2 mph - N/A   Clear
1:15 AM 32.0 °F 23.6 °F 23.0 °F 69% 30.20 in 10.0 mi SSE 10.4 mph - N/A   Clear
1:35 AM 32.0 °F 24.2 °F 23.0 °F 69% 30.19 in 10.0 mi SSE 9.2 mph - N/A   Clear
1:55 AM 32.0 °F 24.2 °F 23.0 °F 69% 30.18 in 10.0 mi SSE 9.2 mph - N/A   Clear
2:15 AM 32.0 °F 24.2 °F 24.8 °F 75% 30.17 in 10.0 mi SSE 9.2 mph - N/A   Clear
2:35 AM 32.0 °F 25.6 °F 24.8 °F 75% 30.15 in 10.0 mi SSE 6.9 mph - N/A   Clear
2:55 AM 32.0 °F 25.6 °F 24.8 °F 75% 30.14 in 10.0 mi SSE 6.9 mph - N/A   Scattered Clouds
3:15 AM 32.0 °F 24.8 °F 23.0 °F 69% 30.13 in 10.0 mi SE 8.1 mph - N/A   Clear
3:35 AM 32.0 °F 23.6 °F 24.8 °F 75% 30.12 in 10.0 mi SSE 10.4 mph - N/A   Mostly Cloudy
3:55 AM 32.0 °F 23.0 °F 24.8 °F 75% 30.12 in 10.0 mi SE 11.5 mph - N/A   Overcast
4:15 AM 32.0 °F 24.8 °F 24.8 °F 75% 30.12 in 10.0 mi SE 8.1 mph 11.5 mph N/A   Overcast
4:35 AM 32.0 °F 22.5 °F 26.6 °F 80% 30.11 in 10.0 mi SSE 12.7 mph - N/A   Overcast
4:55 AM 32.0 °F 23.6 °F 26.6 °F 80% 30.12 in 10.0 mi South 10.4 mph - N/A   Overcast
5:15 AM 32.0 °F 23.6 °F 26.6 °F 80% 30.12 in 10.0 mi SSE 10.4 mph - N/A   Overcast
5:35 AM 32.0 °F 24.2 °F 26.6 °F 80% 30.12 in 10.0 mi South 9.2 mph - N/A   Overcast
5:55 AM 32.0 °F 24.8 °F 26.6 °F 80% 30.12 in 10.0 mi SSE 8.1 mph - N/A   Overcast
6:15 AM 32.0 °F 24.2 °F 26.6 °F 80% 30.11 in 10.0 mi SSE 9.2 mph - N/A   Overcast
6:35 AM 32.0 °F 24.2 °F 26.6 °F 80% 30.11 in 10.0 mi South 9.2 mph - N/A   Overcast
6:55 AM 32.0 °F 25.6 °F 26.6 °F 80% 30.11 in 10.0 mi South 6.9 mph - N/A   Overcast
7:15 AM 32.0 °F 24.8 °F 26.6 °F 80% 30.11 in 10.0 mi South 8.1 mph - N/A   Overcast
7:35 AM 33.8 °F 24.8 °F 26.6 °F 75% 30.11 in 10.0 mi South 12.7 mph - N/A   Overcast
7:55 AM 32.0 °F 23.6 °F 28.4 °F 87% 30.09 in 5.0 mi SSE 10.4 mph - N/A Rain Rain
8:15 AM 33.8 °F 25.3 °F 28.4 °F 81% 30.08 in 7.0 mi SE 11.5 mph - N/A Rain Light Rain
8:35 AM 33.8 °F 26.4 °F 30.2 °F 87% 30.06 in 7.0 mi SE 9.2 mph - N/A   Light Drizzle
8:55 AM 33.8 °F 25.8 °F 30.2 °F 87% 30.06 in 7.0 mi SE 10.4 mph - N/A   Light Drizzle
9:15 AM 33.8 °F 26.4 °F 30.2 °F 87% 30.05 in 7.0 mi SE 9.2 mph - N/A   Overcast
9:35 AM 33.8 °F 25.3 °F 30.2 °F 87% 30.04 in 7.0 mi SE 11.5 mph - N/A   Overcast
9:55 AM 35.6 °F 27.1 °F 32.0 °F 87% 30.01 in 7.0 mi SE 12.7 mph - N/A   Overcast
10:15 AM 35.6 °F 28.0 °F 32.0 °F 87% 30.00 in 10.0 mi SSE 10.4 mph - N/A   Overcast
10:35 AM 35.6 °F 28.6 °F 30.2 °F 81% 29.99 in 10.0 mi SSE 9.2 mph - N/A   Overcast
10:55 AM 35.6 °F 26.2 °F 30.2 °F 81% 29.98 in 10.0 mi SSE 15.0 mph 19.6 mph N/A   Overcast
11:15 AM 37.4 °F 28.9 °F 30.2 °F 75% 29.98 in 10.0 mi South 13.8 mph 18.4 mph N/A   Overcast
11:55 AM 37.4 °F 29.8 °F 30.2 °F 75% 29.97 in 10.0 mi South 11.5 mph - N/A   Overcast
12:35 PM 37.4 °F 27.5 °F 30.2 °F 75% 29.93 in 10.0 mi South 18.4 mph 24.2 mph N/A   Overcast
12:55 PM 37.4 °F 27.8 °F 30.2 °F 75% 29.91 in 10.0 mi SSE 17.3 mph - N/A   Overcast
1:15 PM 37.4 °F 28.2 °F 30.2 °F 75% 29.90 in 10.0 mi SSE 16.1 mph 21.9 mph N/A   Overcast
1:35 PM 37.4 °F 26.6 °F 32.0 °F 81% 29.89 in 10.0 mi South 21.9 mph 25.3 mph N/A   Overcast
1:55 PM 37.4 °F 28.2 °F 32.0 °F 81% 29.88 in 10.0 mi South 16.1 mph 24.2 mph N/A   Overcast
2:15 PM 37.4 °F 28.9 °F 32.0 °F 81% 29.87 in 10.0 mi South 13.8 mph - N/A   Overcast
2:35 PM 35.6 °F 27.5 °F 32.0 °F 87% 29.87 in 7.0 mi South 11.5 mph - N/A Rain Light Rain
2:55 PM 35.6 °F 27.5 °F 32.0 °F 87% 29.87 in 5.0 mi South 11.5 mph 19.6 mph N/A Rain Light Rain
3:15 PM 35.6 °F 27.1 °F 32.0 °F 87% 29.86 in 4.0 mi South 12.7 mph - N/A Rain Rain
3:35 PM 35.6 °F 25.5 °F 32.0 °F 87% 29.84 in 4.0 mi SSE 17.3 mph 21.9 mph 0.01 in Rain Light Rain
3:55 PM 33.8 °F 23.9 °F 32.0 °F 93% 29.84 in 4.0 mi South 15.0 mph - 0.01 in Rain Light Rain
4:15 PM 35.6 °F 27.1 °F 32.0 °F 87% 29.82 in 4.0 mi SSE 12.7 mph - 0.01 in Rain Light Rain
4:35 PM 35.6 °F 27.5 °F 33.8 °F 93% 29.81 in 4.0 mi SSE 11.5 mph - 0.02 in Rain Light Rain
4:55 PM 35.6 °F 28.0 °F 33.8 °F 93% 29.82 in 5.0 mi South 10.4 mph - 0.02 in Rain Light Rain
5:15 PM 35.6 °F 28.0 °F 33.8 °F 93% 29.81 in 5.0 mi South 10.4 mph - N/A   Drizzle
5:35 PM 35.6 °F 27.1 °F 33.8 °F 93% 29.81 in 4.0 mi South 12.7 mph 18.4 mph N/A Rain Light Rain
5:55 PM 35.6 °F 28.0 °F 33.8 °F 93% 29.81 in 5.0 mi South 10.4 mph - N/A Rain Light Rain
6:15 PM 35.6 °F 27.1 °F 33.8 °F 93% 29.82 in 4.0 mi South 12.7 mph - 0.01 in Rain Light Rain
6:35 PM 35.6 °F 28.0 °F 33.8 °F 93% 29.82 in 3.0 mi South 10.4 mph - 0.02 in Rain Light Rain
6:55 PM 33.8 °F 25.8 °F 33.8 °F 100% 29.82 in 2.5 mi South 10.4 mph - 0.03 in Rain Light Rain
7:15 PM 35.6 °F 26.6 °F 33.8 °F 93% 29.81 in 4.0 mi South 13.8 mph 17.3 mph 0.01 in Rain Light Rain
7:35 PM 35.6 °F 25.9 °F 33.8 °F 93% 29.80 in 5.0 mi South 16.1 mph - 0.01 in Rain Rain
7:55 PM 35.6 °F 26.2 °F 33.8 °F 93% 29.80 in 4.0 mi South 15.0 mph - 0.02 in Rain Light Rain
8:15 PM 35.6 °F 26.6 °F 33.8 °F 93% 29.80 in 4.0 mi South 13.8 mph 20.7 mph N/A Rain Light Rain
8:35 PM 35.6 °F 26.6 °F 33.8 °F 93% 29.80 in 4.0 mi South 13.8 mph - N/A   Light Drizzle
8:55 PM 35.6 °F 28.0 °F 33.8 °F 93% 29.80 in 2.5 mi South 10.4 mph - N/A Rain Light Rain
9:15 PM 35.6 °F 27.5 °F 33.8 °F 93% 29.80 in 2.5 mi South 11.5 mph - N/A Rain Light Rain
9:35 PM 35.6 °F 28.0 °F 33.8 °F 93% 29.79 in 3.0 mi South 10.4 mph - N/A Rain Rain
9:55 PM 35.6 °F 27.5 °F 33.8 °F 93% 29.78 in 3.0 mi South 11.5 mph - 0.01 in   Light Drizzle
10:15 PM 35.6 °F 26.6 °F 33.8 °F 93% 29.79 in 4.0 mi SSW 13.8 mph 17.3 mph N/A   Light Drizzle
10:35 PM 35.6 °F 26.6 °F 33.8 °F 93% 29.78 in 3.0 mi South 13.8 mph - N/A   Drizzle
10:55 PM 35.6 °F 27.1 °F 33.8 °F 93% 29.77 in 3.0 mi South 12.7 mph - N/A   Drizzle
11:15 PM 35.6 °F 27.1 °F 33.8 °F 93% 29.76 in 3.0 mi South 12.7 mph - N/A   Light Drizzle
11:35 PM 35.6 °F 27.1 °F 35.6 °F 100% 29.75 in 3.0 mi South 12.7 mph - N/A   Light Drizzle
11:55 PM 35.6 °F 29.2 °F 35.6 °F 100% 29.75 in 3.0 mi South 8.1 mph - N/A   Overcast